Regional Weather Roundup
Issued by NWS

Home | Current Version | Previous Version | Graphics & Text | Print | Product List | Glossary On
Versions: 1 2 3 4 5 6 7 8 9 10 11 12 13 14 15 16 17 18 19 20 21 22 23 24 25 26 27 28 29 30 31 32 33 34 35 36 37 38 39 40 41 42 43 44 45 46 47 48 49 50
000
ASUS45 KPSR 171510
RWRAZ

ARIZONA HOURLY REGIONAL WEATHER ROUNDUP
NATIONAL WEATHER SERVICE PHOENIX AZ
800 AM MST SUN DEC 17 2017

NOTE: FAIR INDICATES FEW OR NO CLOUDS BELOW 12,000 FEET WITH NO
SIGNIFICANT WEATHER AND/OR OBSTRUCTIONS TO VISIBILITY.

AZZ001>003-036-171600-
NORTHWEST ARIZONA

CITY           SKY/WX    TMP DP  RH WIND       PRES   REMARKS
BULLHEAD CITY  CLEAR     54  23  30 N28G36    29.96R
KINGMAN        CLEAR     33  20  58 E10       29.99R WCI  25
$$

AZZ004>008-015-016-018-171600-
NORTH CENTRAL ARIZONA

CITY           SKY/WX    TMP DP  RH WIND       PRES   REMARKS
GRAND CANYON   PTCLDY    13   1  59 CALM      30.00R
WILLIAMS       MOCLDY    27  10  50 S8        29.95R WCI  18
PRESCOTT       PTCLDY    28  14  55 CALM      29.95R
FLAGSTAFF      MOCLDY    30   7  37 E3        29.98R
PAYSON         CLOUDY    37  34  87 CALM      29.96R
PAGE           PTCLDY    27  13  55 CALM      30.04R
$$

AZZ009>014-017-171600-
NORTHEAST ARIZONA

CITY           SKY/WX    TMP DP  RH WIND       PRES   REMARKS
WINSLOW        MOCLDY    32   8  36 NW5       30.00R WCI  27
SAINT JOHNS    CLOUDY    25   2  37 W3        29.98R
WINDOW ROCK    MOCLDY    21   7  54 CALM      30.00R
SHOW LOW       CLOUDY    32  14  47 CALM      29.99R
$$

AZZ540-542>544-546-548-171600-
GREATER PHOENIX AREA

CITY           SKY/WX    TMP DP  RH WIND       PRES   REMARKS
PHOENIX        LGT RAIN  52  49  89 SE6       29.89R
BUCKEYE        MOCLDY    48  45  87 CALM      29.93R
GLENDALE       CLOUDY    54  48  82 CALM      29.93R
LUKE AFB       CLOUDY    50  46  86 SW7       29.90R
DEER VALLEY    CLOUDY    50  45  83 NE15      29.89S
SCOTTSDALE     LGT RAIN  52  44  74 NE15      29.90S
MESA-FALCON    MOCLDY    50  46  87 N17       29.90R
MESA-GATEWAY   CLOUDY    52  43  71 NE13G22   29.90R
CHANDLER       CLOUDY    54  45  71 SE12      29.92R
$$

AZZ539-553-171600-
SOUTHWEST MARICOPA COUNTY AND PINAL COUNTY

CITY           SKY/WX    TMP DP  RH WIND       PRES   REMARKS
CASA GRANDE    NOT AVBL
GILA BEND      SHOWER    52  41  66 E8        29.88R
$$

AZZ503-504-507>509-171600-
SOUTHEAST ARIZONA

CITY           SKY/WX    TMP DP  RH WIND       PRES   REMARKS
TUCSON         CLOUDY    46  44  93 NE9       29.91F
DAVIS-MONTHAN  CLOUDY    46  40  82 N5        29.89F
RYAN FIELD     PTCLDY    45  43  93 N10       29.89F
NOGALES        LGT RAIN  43  41  93 MISG      29.89R
SIERRA VISTA   LGT RAIN  41  39  93 SE7       29.92R FOG
DOUGLAS        MOCLDY    39  38  96 E12       29.94S WCI  32
SAFFORD        CLOUDY    45  42  89 E7        29.97R
$$

AZZ532-171600-
SOUTHWEST ARIZONA

CITY           SKY/WX    TMP DP  RH WIND       PRES   REMARKS
YUMA           PTCLDY    53  36  52 NE12      29.87R
$$

CAZ041-043-047-048-061-525>527-560>570-171600-
SOUTHERN CALIFORNIA

CITY           SKY/WX    TMP DP  RH WIND       PRES   REMARKS
DOWNTOWN L.A.  CLEAR     53  27  36 CALM      29.88R
L.A. AIRPORT   PTCLDY    58  21  24 N7        29.89R
SAN DIEGO      PTCLDY    51  44  77 CALM      29.86R
BURBANK        CLEAR     56  17  21 NE28G51   29.88R BLWGDUST
ONTARIO        PTCLDY    57  16  20 N14G23    29.89R
RIVERSIDE      CLEAR     53  17  24 NE14G32   29.91R
PALM SPRINGS   PTCLDY    59  19  21 NW6       29.97R
EL CENTRO NAS  MOCLDY    56  37  49 N13       29.90R
IMPERIAL       MOCLDY    59  29  31 N14       29.87R
BLYTHE         CLOUDY    55  26  32 N13       29.90R
NEEDLES        CLEAR     54  27  35 N24G31    29.96R
$$

NVZ020-UTZ003-171600-
SOUTHERN NEVADA-UTAH

CITY           SKY/WX    TMP DP  RH WIND       PRES   REMARKS
LAS VEGAS      PTCLDY    47  19  33 N21G32    30.06R
SALT LAKE CITY MOCLDY    28  24  85 NW6       30.20R WCI  22
$$

NMZ009-TXZ055-171600-
NEW MEXICO-WEST TEXAS

CITY           SKY/WX    TMP DP  RH WIND       PRES   REMARKS
ALBUQUERQUE    CLOUDY    33  16  49 N8        30.01R WCI  26
EL PASO        PTSUNNY   43  32  65 SW3       29.99R
$$


........................KEY........................
SKY/WX - SKY CONDITION/WEATHER
TMP    - TEMPERATURE IN FAHRENHEIT
DP     - DEW POINT IN FAHRENHEIT
RH     - RELATIVE HUMIDITY IN PERCENT
WIND   - DIRECTION AND SPEED IN MILES PER HOUR (MPH)
VRB    - VARIABLE WIND DIRECTION
PRES   - MEAN SEA LEVEL PRESSURE IN INCHES OF MERCURY
         F - FALLING PRESSURE   R - RISING PRESSURE
         S - STEADY PRESSURE
VSB    - VISIBILITY IN MILES
HX     - HEAT INDEX IN FAHRENHEIT
WCI    - WIND CHILL INDEX IN FAHRENHEIT
TC     - TEMPERATURE IN CELSIUS WHICH IS ALSO KNOWN AS
         TEMPERATURE IN CENTIGRADE
AFB    - AIR FORCE BASE
         LUKE AFB IS LUKE AIR FORCE BASE
         DAVIS-MONTHAN IS DAVIS-MONTHAN AIR FORCE BASE
NAS    - NAVAL AIR STATION
         EL CENTRO NAS IS EL CENTRO NAVAL AIR STATION
N/A    - NOT AVAILABLE




USA.gov is the U.S. government's official web portal to all federal, state and local government web resources and services.